Time,TemperatureF,DewpointF,PressureIn,WindDirection,WindDirectionDegrees,WindSpeedMPH,WindSpeedGustMPH,Humidity,HourlyPrecipIn,Conditions,Clouds,dailyrainin,SoftwareType,DateUTC
2013-03-13 00:00:00,33.0,25.0,29.95,SW,220,11.0,-999.0,71,-99.99,,,-99.99,,2013-03-13 00:00:00,
2013-03-13 00:22:00,33.0,25.0,29.95,SW,220,11.0,-999.0,71,-99.99,,,-99.99,,2013-03-13 00:22:00,
2013-03-13 00:32:00,33.0,25.0,29.95,SW,220,11.0,-999.0,71,-99.99,,,-99.99,,2013-03-13 00:32:00,
2013-03-13 00:41:00,33.0,25.0,29.95,SW,220,11.0,-999.0,71,-99.99,,,-99.99,,2013-03-13 00:41:00,
2013-03-13 00:52:00,33.0,25.0,29.95,SW,220,11.0,-999.0,71,-99.99,,,-99.99,,2013-03-13 00:52:00,
2013-03-13 01:00:00,33.0,26.0,29.95,SW,230,10.0,-999.0,73,-99.99,,,-99.99,,2013-03-13 01:00:00,
2013-03-13 01:21:00,33.0,26.0,29.95,SW,230,10.0,-999.0,73,-99.99,,,-99.99,,2013-03-13 01:21:00,
2013-03-13 01:31:00,33.0,26.0,29.95,SW,230,10.0,-999.0,73,-99.99,,,-99.99,,2013-03-13 01:31:00,
2013-03-13 01:42:00,33.0,26.0,29.95,SW,230,10.0,-999.0,73,-99.99,,,-99.99,,2013-03-13 01:42:00,
2013-03-13 01:51:00,33.0,26.0,29.95,SW,230,10.0,-999.0,73,-99.99,,,-99.99,,2013-03-13 01:51:00,
2013-03-13 02:00:00,33.0,26.0,29.96,WSW,240,11.0,-999.0,75,-99.99,,,-99.99,,2013-03-13 02:00:00,
2013-03-13 02:21:00,33.0,26.0,29.96,WSW,240,11.0,-999.0,75,-99.99,,,-99.99,,2013-03-13 02:21:00,
2013-03-13 02:31:00,33.0,26.0,29.96,WSW,240,11.0,-999.0,75,-99.99,,,-99.99,,2013-03-13 02:31:00,
2013-03-13 02:42:00,33.0,26.0,29.96,WSW,240,11.0,-999.0,75,-99.99,,,-99.99,,2013-03-13 02:42:00,
2013-03-13 02:51:00,33.0,26.0,29.96,WSW,240,11.0,-999.0,75,-99.99,,,-99.99,,2013-03-13 02:51:00,
2013-03-13 03:00:00,32.0,27.0,29.96,SW,230,7.0,-999.0,79,-99.99,,,-99.99,,2013-03-13 03:00:00,
2013-03-13 03:21:00,32.0,27.0,29.96,SW,230,7.0,-999.0,79,-99.99,,,-99.99,,2013-03-13 03:21:00,
2013-03-13 03:41:00,32.0,27.0,29.96,SW,230,7.0,-999.0,79,-99.99,,,-99.99,,2013-03-13 03:41:00,
2013-03-13 03:51:00,32.0,27.0,29.96,SW,230,7.0,-999.0,79,-99.99,,,-99.99,,2013-03-13 03:51:00,
2013-03-13 04:00:00,32.0,26.0,29.96,SW,220,8.0,-999.0,77,-99.99,,,-99.99,,2013-03-13 04:00:00,
2013-03-13 04:21:00,32.0,26.0,29.96,SW,220,8.0,-999.0,77,-99.99,,,-99.99,,2013-03-13 04:21:00,
2013-03-13 04:31:00,32.0,26.0,29.96,SW,220,8.0,-999.0,77,-99.99,,,-99.99,,2013-03-13 04:31:00,
2013-03-13 04:42:00,32.0,26.0,29.96,SW,220,8.0,-999.0,77,-99.99,,,-99.99,,2013-03-13 04:42:00,
2013-03-13 04:52:00,32.0,26.0,29.96,SW,220,8.0,-999.0,77,-99.99,,,-99.99,,2013-03-13 04:52:00,
2013-03-13 05:00:00,31.0,28.0,29.94,SW,220,11.0,-999.0,88,-99.99,,,-99.99,,2013-03-13 05:00:00,
2013-03-13 05:21:00,31.0,28.0,29.94,SW,220,11.0,-999.0,88,-99.99,,,-99.99,,2013-03-13 05:21:00,
2013-03-13 05:31:00,31.0,28.0,29.94,SW,220,11.0,-999.0,88,-99.99,,,-99.99,,2013-03-13 05:31:00,
2013-03-13 05:42:00,31.0,28.0,29.94,SW,220,11.0,-999.0,88,-99.99,,,-99.99,,2013-03-13 05:42:00,
2013-03-13 05:51:00,31.0,28.0,29.94,SW,220,11.0,-999.0,88,-99.99,,,-99.99,,2013-03-13 05:51:00,
2013-03-13 06:00:00,31.0,28.0,29.93,SW,220,9.0,-999.0,87,-99.99,,,-99.99,,2013-03-13 06:00:00,
2013-03-13 06:21:00,31.0,28.0,29.93,SW,220,9.0,-999.0,87,-99.99,,,-99.99,,2013-03-13 06:21:00,
2013-03-13 06:31:00,31.0,28.0,29.93,SW,220,9.0,-999.0,87,-99.99,,,-99.99,,2013-03-13 06:31:00,
2013-03-13 06:41:00,31.0,28.0,29.93,SW,220,9.0,-999.0,87,-99.99,,,-99.99,,2013-03-13 06:41:00,
2013-03-13 06:52:00,31.0,28.0,29.93,SW,220,9.0,-999.0,87,-99.99,,,-99.99,,2013-03-13 06:52:00,
2013-03-13 07:00:00,31.0,27.0,29.92,SW,220,10.0,-999.0,86,-99.99,,,-99.99,,2013-03-13 07:00:00,
2013-03-13 07:21:00,31.0,27.0,29.92,SW,220,10.0,-999.0,86,-99.99,,,-99.99,,2013-03-13 07:21:00,
2013-03-13 07:31:00,31.0,27.0,29.92,SW,220,10.0,-999.0,86,-99.99,,,-99.99,,2013-03-13 07:31:00,
2013-03-13 07:41:00,31.0,27.0,29.92,SW,220,10.0,-999.0,86,-99.99,,,-99.99,,2013-03-13 07:41:00,
2013-03-13 07:52:00,31.0,27.0,29.92,SW,220,10.0,-999.0,86,-99.99,,,-99.99,,2013-03-13 07:52:00,
2013-03-13 08:00:00,31.0,26.0,29.91,SW,230,13.0,-999.0,82,-99.99,,,-99.99,,2013-03-13 08:00:00,
2013-03-13 08:21:00,31.0,26.0,29.91,SW,230,13.0,-999.0,82,-99.99,,,-99.99,,2013-03-13 08:21:00,
2013-03-13 08:31:00,31.0,26.0,29.91,SW,230,13.0,-999.0,82,-99.99,,,-99.99,,2013-03-13 08:31:00,
2013-03-13 08:42:00,31.0,26.0,29.91,SW,230,13.0,-999.0,82,-99.99,,,-99.99,,2013-03-13 08:42:00,
2013-03-13 08:52:00,31.0,26.0,29.91,SW,230,13.0,-999.0,82,-99.99,,,-99.99,,2013-03-13 08:52:00,
2013-03-13 09:00:00,30.0,25.0,29.89,SW,230,14.0,-999.0,80,-99.99,,,-99.99,,2013-03-13 09:00:00,
2013-03-13 09:21:00,30.0,25.0,29.89,SW,230,14.0,-999.0,80,-99.99,,,-99.99,,2013-03-13 09:21:00,
2013-03-13 09:31:00,30.0,25.0,29.89,SW,230,14.0,-999.0,80,-99.99,,,-99.99,,2013-03-13 09:31:00,
2013-03-13 09:41:00,30.0,25.0,29.89,SW,230,14.0,-999.0,80,-99.99,,,-99.99,,2013-03-13 09:41:00,
2013-03-13 09:52:00,30.0,25.0,29.89,SW,230,14.0,-999.0,80,-99.99,,,-99.99,,2013-03-13 09:52:00,
2013-03-13 10:00:00,29.0,26.0,29.90,West,280,10.0,-999.0,86,-99.99,,,-99.99,,2013-03-13 10:00:00,
2013-03-13 10:22:00,29.0,26.0,29.90,West,280,10.0,-999.0,86,-99.99,,,-99.99,,2013-03-13 10:22:00,
2013-03-13 10:31:00,29.0,26.0,29.90,West,280,10.0,-999.0,86,-99.99,,,-99.99,,2013-03-13 10:31:00,
2013-03-13 10:41:00,29.0,26.0,29.90,West,280,10.0,-999.0,86,-99.99,,,-99.99,,2013-03-13 10:41:00,
2013-03-13 10:52:00,29.0,26.0,29.90,West,280,10.0,-999.0,86,-99.99,,,-99.99,,2013-03-13 10:52:00,
2013-03-13 11:00:00,29.0,22.0,29.93,West,270,11.0,-999.0,75,-99.99,,,-99.99,,2013-03-13 11:00:00,
2013-03-13 11:21:00,29.0,22.0,29.93,West,270,11.0,-999.0,75,-99.99,,,-99.99,,2013-03-13 11:21:00,
2013-03-13 11:31:00,29.0,22.0,29.93,West,270,11.0,-999.0,75,-99.99,,,-99.99,,2013-03-13 11:31:00,
2013-03-13 11:41:00,29.0,22.0,29.93,West,270,11.0,-999.0,75,-99.99,,,-99.99,,2013-03-13 11:41:00,
2013-03-13 11:52:00,29.0,22.0,29.93,West,270,11.0,-999.0,75,-99.99,,,-99.99,,2013-03-13 11:52:00,
2013-03-13 12:00:00,29.0,22.0,29.94,West,270,10.0,-999.0,74,-99.99,,,-99.99,,2013-03-13 12:00:00,
2013-03-13 12:22:00,29.0,22.0,29.94,West,270,10.0,-999.0,74,-99.99,,,-99.99,,2013-03-13 12:22:00,
2013-03-13 12:32:00,29.0,22.0,29.94,West,270,10.0,-999.0,74,-99.99,,,-99.99,,2013-03-13 12:32:00,
2013-03-13 12:41:00,29.0,22.0,29.94,West,270,10.0,-999.0,74,-99.99,,,-99.99,,2013-03-13 12:41:00,
2013-03-13 12:52:00,29.0,22.0,29.94,West,270,10.0,-999.0,74,-99.99,,,-99.99,,2013-03-13 12:52:00,
2013-03-13 18:00:00,27.0,20.0,30.07,WNW,290,9.0,-999.0,75,-99.99,,,-99.99,,2013-03-13 18:00:00,
2013-03-13 18:21:00,27.0,20.0,30.07,WNW,290,9.0,-999.0,75,-99.99,,,-99.99,,2013-03-13 18:21:00,
2013-03-13 18:32:00,27.0,20.0,30.07,WNW,290,9.0,-999.0,75,-99.99,,,-99.99,,2013-03-13 18:32:00,
2013-03-13 18:41:00,27.0,20.0,30.07,WNW,290,9.0,-999.0,75,-99.99,,,-99.99,,2013-03-13 18:41:00,
2013-03-13 18:51:00,27.0,20.0,30.07,WNW,290,9.0,-999.0,75,-99.99,,,-99.99,,2013-03-13 18:51:00,